Location: *
(51.1248°S, 108.4023°W)
Time: 09:27:53
(UTC+00:00)

Envisat - Pass Details

Date: 29 September 2021
Orbit: 764 x 766 km, 98.2° (Epoch: 27 October)

Event Time Altitude Azimuth Distance (km) Brightness Sun altitude
Rises 02:14:48 0° 176° (S) 3,279 6.4 -9.1°
Reaches altitude 10° 02:17:45 10° 193° (SSW) 2,345 5.9 -9.5°
Maximum altitude 02:21:14 19° 235° (SW) 1,807 6.0 -10.0°
Drops below altitude 10° 02:24:43 10° 278° (W) 2,329 6.6 -10.5°
Sets 02:27:38 0° 295° (WNW) 3,248 7.0 -11.0°
